[[{"header":{"parameterUnit":"m.s-1","parameterCategory":2,"la1":30.2991,"la2":30.254,"lo1":-89.0895,"lo2":-89.0444,"dy":0.0017,"dx":0.0017,"nx":28,"ny":28,"refTime":"2024-11-25T09:00:00:Z","depth":"0","parameterNumber":2,"parameterNumberName":"U-component_of_CURRENTS"},"data":[0,0,0,0,0,0,0,0,0,0,0,0,0,0,0,0,0,0,0,0,0,0,0,0,0,0,0,0,0,0,0,0,0,0,0,0,0,0,0,0,0,0,0,0,0,0,0,0,0,0,0,0,0,0,0,0,0,0,0.1303,0.1303,0,0.1336,0.1336,0.1337,0.1291,0.1289,0.1287,0.1286,0.1376,0.138,0.1384,0,0,0,0,0,0,0,0,0,0,0,0,0,0.1241,0.1243,0.1303,0.1303,0.1303,0.1335,0.1336,0.1337,0.1291,0.1289,0.1287,0.1285,0.1374,0.1379,0.1384,0,0,0,0,0,0,0,0,0,0,0,0,0,0.1273,0.1243,0.1303,0.1283,0.1281,0.1335,0.1336,0.1337,0.1292,0.1289,0.1286,0.1284,0.1373,0.1379,0.1385,0.1479,0,0,0.1404,0.1407,0,0,0,0,0,0,0,0,0.1271,0.1275,0.1285,0.1284,0.1282,0.1304,0.1347,0.1386,0.1292,0.129,0.1285,0.1282,0.1358,0.1365,0.138,0.1483,0.1487,0.1404,0.1408,0.1411,0.1413,0,0,0,0,0,0,0,0.1269,0.1274,0.1318,0.1286,0.1284,0.1286,0.1287,0.1355,0.1342,0.129,0.1286,0.1287,0.1357,0.1374,0.1382,0.1488,0.1404,0.141,0.1414,0.1416,0.1664,0.1667,0,0,0,0,0,0,0.1261,0.1272,0.1317,0.1319,0.1267,0.1289,0.129,0.1302,0.134,0.1342,0.1289,0.1285,0.1365,0.1375,0.1385,0.1474,0.1411,0.1417,0.142,0.1661,0.1665,0.1668,0,0,0,0,0,0,0.126,0.1266,0.1316,0.1293,0.1299,0.1292,0.1306,0.1304,0.1319,0.1338,0.1341,0.1305,0.1363,0.1376,0.1455,0.1478,0.1419,0.1425,0.1658,0.1662,0.1666,0.1668,0,0,0,0,0,0,0.1259,0.1266,0.1283,0.1293,0.13,0.1361,0.1308,0.1307,0.1322,0.1317,0.1354,0.1359,0.1362,0.1446,0.1461,0.1485,0.143,0.1654,0.166,0.1665,0.1664,0.1672,0.1678,0,0,0,0,0,0.1257,0.1314,0.1284,0.1289,0.1321,0.1363,0.1369,0.1354,0.1326,0.1354,0.1373,0.1357,0.149,0.1455,0.1471,0.1497,0.1652,0.1658,0.1665,0.1661,0.167,0.1678,0,0,0,0,0,0,0.1335,0.1314,0.1281,0.1337,0.1343,0.1354,0.1385,0.1369,0.1407,0.1399,0.1407,0.1417,0.1489,0.1514,0.1474,0.1589,0.1566,0.1576,0.1557,0.1566,0.1573,0.1525,0.1435,0,0,0,0,0,0.1349,0.1362,0.1351,0.1398,0.1397,0.1388,0.1405,0.1391,0.1417,0.1428,0.1448,0.1484,0.1536,0.1564,0.1614,0.1694,0.174,0.1722,0.1729,0.1734,0.1711,0.1775,0.1784,0.1689,0.1689,0.1689,0,0,0.1392,0.1384,0.1393,0.141,0.141,0.1422,0.1393,0.1425,0.1435,0.144,0.1481,0.1517,0.1566,0.1635,0.167,0.1654,0.1812,0.1742,0.1746,0.1719,0.1783,0.1791,0.1799,0.1694,0.1693,0.1692,0,0,0.1462,0.1474,0.1479,0.1485,0.1477,0.1478,0.1486,0.1491,0.1491,0.1547,0.1542,0.1582,0.1678,0.1688,0.1715,0.1803,0.1848,0.1839,0.183,0.1894,0.19,0.1907,0.2075,0.2096,0.1838,0.1838,0.1838,0,0.1496,0.1511,0.1501,0.1504,0.1512,0.1499,0.1511,0.1528,0.1558,0.1564,0.1563,0.1659,0.1691,0.175,0.1766,0.181,0.1896,0.1785,0.1898,0.1904,0.191,0.208,0.2103,0.1838,0.1838,0.1838,0.1838,0,0.1541,0.1557,0.158,0.1554,0.1574,0.1604,0.1597,0.162,0.162,0.1616,0.1673,0.1715,0.1759,0.1787,0.1801,0.1864,0.1936,0.1898,0.186,0.1918,0.2098,0.2121,0.184,0.1839,0.1839,0.1839,0,0,0.1589,0.1595,0.1597,0.1597,0.1599,0.1628,0.1649,0.1662,0.1679,0.1698,0.173,0.1781,0.1777,0.1806,0.1832,0.1871,0.2015,0.1901,0.1904,0.2044,0.2256,0.2322,0.2356,0.1997,0.1998,0.2,0.2398,0,0.1608,0.1631,0.1623,0.1663,0.1681,0.1676,0.1706,0.1717,0.1733,0.1773,0.1779,0.184,0.1797,0.1842,0.1862,0.1976,0.2063,0.1917,0.2199,0.2209,0.2236,0.2377,0.2373,0.2725,0.2421,0.2425,0.2428,0,0.1632,0.1646,0.1678,0.1712,0.1717,0.1742,0.1781,0.1801,0.1829,0.1846,0.1857,0.1883,0.195,0.1909,0.2092,0.2011,0.2129,0.2209,0.2226,0.2281,0.2314,0.2602,0.2779,0.2673,0.2465,0.2462,0.2459,0,0.1669,0.1692,0.1723,0.1733,0.1764,0.1782,0.18,0.1823,0.1856,0.1902,0.1959,0.1992,0.2086,0.2161,0.23,0.2225,0.2538,0.2461,0.2649,0.2661,0.2705,0.2714,0.2771,0.2601,0.26,0.2599,0.2597,0,0.1701,0.1729,0.1749,0.177,0.1823,0.1825,0.1876,0.1894,0.1943,0.1998,0.2004,0.2094,0.2148,0.2311,0.2386,0.2626,0.2622,0.269,0.2755,0.2721,0.2727,0.2668,0.2574,0.2614,0.261,0.2607,0.2605,0,0.174,0.1746,0.1797,0.1832,0.1844,0.1887,0.1932,0.1969,0.2019,0.2107,0.2143,0.2248,0.2454,0.2563,0.2771,0.2803,0.2942,0.3069,0.3079,0.3133,0.3131,0.3039,0.3105,0.306,0.3343,0.3347,0.335,0,0.176,0.1794,0.1846,0.1871,0.1888,0.1936,0.1965,0.2005,0.2048,0.22,0.2263,0.249,0.2621,0.2986,0.3111,0.3343,0.3161,0.3463,0.3256,0.3168,0.3113,0.2935,0.2876,0.3391,0.3395,0.3397,0.3399,0,0.1799,0.1822,0.1848,0.1907,0.1947,0.1993,0.2041,0.209,0.215,0.2253,0.2416,0.2546,0.2901,0.3101,0.34,0.3518,0.3307,0.3524,0.3407,0.3138,0.2973,0.2951,0.316,0.3423,0.3421,0.3419,0.3418,0.3417,0.1814,0.1843,0.1869,0.1928,0.1974,0.2021,0.2043,0.2112,0.2199,0.2319,0.247,0.2652,0.2981,0.3382,0.3505,0.3671,0.3523,0.3584,0.3501,0.3344,0.3191,0.3496,0.3806,0.3806,0.3805,0.3805,0.3805,0,0.1789,0.1818,0.1879,0.1924,0.196,0.1996,0.2062,0.2078,0.2158,0.2329,0.2464,0.2783,0.3074,0.3344,0.3637,0.3605,0.349,0.3537,0.3245,0.3202,0.3497,0.338,0.3638,0.3638,0.3638,0.3638,0.3638,0.3638,0.1761,0.1786,0.1825,0.1875,0.1914,0.1932,0.1956,0.2016,0.2121,0.23,0.246,0.2621,0.2947,0.3325,0.347,0.3464,0.3193,0.3159,0.3066,0.3213,0.3207,0.32,0.3066,0.3254,0.3253,0.2719,0.2715,0.2712]},{"header":{"parameterUnit":"m.s-1","parameterCategory":2,"la1":30.2991,"la2":30.254,"lo1":-89.0895,"lo2":-89.0444,"dy":0.0017,"dx":0.0017,"nx":28,"ny":28,"refTime":"2024-11-25T09:00:00:Z","depth":"0","parameterNumber":3,"parameterNumberName":"V-component_of_CURRENTS"},"data":[0,0,0,0,0,0,0,0,0,0,0,0,0,0,0,0,0,0,0,0,0,0,0,0,0,0,0,0,0,0,0,0,0,0,0,0,0,0,0,0,0,0,0,0,0,0,0,0,0,0,0,0,0,0,0,0,0,0,0.0368,0.0367,0,0.0278,0.0277,0.0276,0.0214,0.0213,0.0212,0.0211,0.0169,0.0169,0.0168,0,0,0,0,0,0,0,0,0,0,0,0,0,0.0455,0.0454,0.0368,0.0367,0.0365,0.0278,0.0277,0.0276,0.0214,0.0213,0.0212,0.0211,0.0169,0.0169,0.0168,0,0,0,0,0,0,0,0,0,0,0,0,0,0.0399,0.0454,0.0368,0.0322,0.0317,0.0278,0.0277,0.0276,0.0214,0.0213,0.0212,0.0211,0.0169,0.0169,0.0168,0.0185,0,0,0.0166,0.0166,0,0,0,0,0,0,0,0,0.0402,0.0396,0.033,0.0325,0.0319,0.0253,0.0292,0.0247,0.0214,0.0256,0.0211,0.021,0.0201,0.0198,0.0186,0.0183,0.0182,0.0166,0.0166,0.0165,0.0165,0,0,0,0,0,0,0,0.0406,0.04,0.0335,0.0329,0.0322,0.0294,0.0286,0.0283,0.0238,0.0252,0.0247,0.0233,0.0198,0.0187,0.0185,0.0181,0.0166,0.0165,0.0165,0.0165,0.0186,0.0187,0,0,0,0,0,0,0.0415,0.0404,0.0338,0.0332,0.0356,0.0294,0.0284,0.0278,0.0237,0.0229,0.0234,0.023,0.0188,0.0186,0.0183,0.0196,0.0165,0.0165,0.0164,0.0185,0.0186,0.0187,0,0,0,0,0,0,0.0417,0.041,0.0341,0.0363,0.0352,0.0293,0.0287,0.0276,0.0262,0.0222,0.0215,0.0229,0.0188,0.0184,0.0188,0.0194,0.0164,0.0164,0.0184,0.0185,0.0187,0.0226,0,0,0,0,0,0,0.042,0.0412,0.0416,0.0364,0.0351,0.0331,0.0287,0.0275,0.0254,0.0249,0.0216,0.0211,0.0186,0.0189,0.0187,0.0193,0.0163,0.0182,0.0184,0.0186,0.0224,0.0229,0.0233,0,0,0,0,0,0.0424,0.0422,0.0417,0.0409,0.0357,0.0332,0.0324,0.0279,0.0255,0.0261,0.0237,0.0212,0.0199,0.019,0.0187,0.0193,0.0182,0.0184,0.0186,0.0222,0.0228,0.0233,0,0,0,0,0,0,0.0464,0.0414,0.0408,0.0393,0.0375,0.032,0.0312,0.0287,0.0271,0.0265,0.0228,0.0223,0.0226,0.0212,0.0203,0.0206,0.0185,0.0187,0.0213,0.0219,0.0223,0.022,0.0163,0,0,0,0,0,0.0478,0.0465,0.0426,0.0421,0.041,0.0368,0.0352,0.0328,0.03,0.029,0.0261,0.0241,0.0234,0.0229,0.0219,0.0227,0.0227,0.0229,0.0234,0.0238,0.0235,0.0246,0.0252,0.0194,0.0194,0.0194,0,0,0.0498,0.0465,0.0463,0.043,0.0407,0.0393,0.0357,0.0339,0.0326,0.0292,0.0271,0.0259,0.0241,0.0243,0.0243,0.0232,0.026,0.0241,0.0244,0.0239,0.0249,0.0255,0.026,0.0196,0.0195,0.0195,0,0,0.0514,0.0501,0.0491,0.0476,0.0444,0.0419,0.0418,0.0373,0.0355,0.0347,0.0314,0.031,0.0292,0.0276,0.0268,0.0299,0.0286,0.0297,0.0317,0.0328,0.0333,0.0337,0.0366,0.0372,0.0299,0.0299,0.0299,0,0.0544,0.0522,0.049,0.0474,0.0462,0.0432,0.0427,0.0408,0.037,0.0363,0.0348,0.0326,0.0305,0.0309,0.031,0.0307,0.032,0.0294,0.0334,0.0338,0.0341,0.037,0.0376,0.0301,0.0301,0.0301,0.03,0,0.0545,0.0536,0.053,0.0501,0.0487,0.0485,0.045,0.0441,0.0418,0.0397,0.0396,0.0376,0.0364,0.0357,0.0338,0.0353,0.0358,0.034,0.0318,0.0349,0.0378,0.0383,0.0304,0.0303,0.0303,0.0302,0,0,0.0589,0.0545,0.0542,0.0542,0.0504,0.0497,0.048,0.0464,0.0467,0.044,0.045,0.0421,0.0414,0.0406,0.0389,0.0389,0.0422,0.0374,0.0373,0.04,0.0468,0.0455,0.046,0.0414,0.0414,0.0415,0.0486,0,0.0607,0.059,0.0556,0.0559,0.0553,0.0526,0.052,0.0502,0.0488,0.0495,0.0477,0.0488,0.0434,0.0448,0.0435,0.0434,0.0436,0.0405,0.0435,0.0436,0.0418,0.0465,0.0462,0.0523,0.0491,0.0492,0.0493,0,0.0605,0.0599,0.0595,0.0593,0.059,0.0591,0.0587,0.0576,0.0571,0.0567,0.0562,0.0558,0.0561,0.0518,0.0516,0.0503,0.0482,0.0472,0.0474,0.0447,0.0433,0.0482,0.0534,0.0382,0.0501,0.0501,0.05,0,0.0626,0.0623,0.0626,0.0623,0.0613,0.0618,0.0617,0.06,0.0611,0.0622,0.0657,0.0641,0.0674,0.0633,0.0602,0.0568,0.0612,0.0566,0.0534,0.0534,0.0527,0.0525,0.043,0.0557,0.0556,0.0556,0.0556,0,0.0633,0.064,0.0648,0.0647,0.0679,0.0656,0.0683,0.0674,0.0697,0.0736,0.0707,0.0763,0.0705,0.072,0.0654,0.063,0.0656,0.0549,0.0551,0.0544,0.0542,0.0405,0.0287,0.0559,0.0558,0.0558,0.0557,0,0.0631,0.0629,0.0643,0.0664,0.0677,0.0694,0.0728,0.0755,0.0773,0.0832,0.0853,0.0884,0.0905,0.0848,0.0816,0.0725,0.0599,0.0663,0.0667,0.0666,0.0459,0.0343,0.0277,0.0189,0.0634,0.0634,0.0634,0,0.0631,0.0636,0.066,0.0683,0.0694,0.0728,0.0755,0.0777,0.0815,0.0911,0.0959,0.1017,0.1067,0.1028,0.0887,0.0793,0.0633,0.07,0.0607,0.0454,0.0328,0.0278,0.0204,0.0632,0.0633,0.0633,0.0633,0,0.0644,0.0644,0.0656,0.0702,0.0739,0.0789,0.0841,0.0886,0.0931,0.1006,0.1124,0.1189,0.1166,0.1102,0.0964,0.0857,0.0562,0.0695,0.0537,0.0314,0.0254,0.017,0.0587,0.0633,0.0633,0.0633,0.0633,0.0633,0.0662,0.0673,0.0688,0.0737,0.0783,0.0855,0.0905,0.098,0.1066,0.1198,0.1249,0.1384,0.129,0.1113,0.0923,0.0584,0.0552,0.0458,0.0337,0.0309,0.0187,0.0606,0.0642,0.0642,0.0642,0.0642,0.0642,0,0.0683,0.0692,0.0734,0.0788,0.0852,0.0873,0.097,0.1036,0.1151,0.1299,0.1416,0.1532,0.1301,0.1063,0.0636,0.0308,0.0181,0.0119,0.0028,-0.003,0.0358,0.0317,0.0283,0.0283,0.0283,0.0284,0.0284,0.0284,0.0692,0.0715,0.0734,0.084,0.0892,0.0985,0.1043,0.1151,0.1274,0.1504,0.1674,0.1814,0.172,0.0779,0.0122,-0.0042,-0.0301,-0.034,-0.0477,-0.0248,-0.0226,-0.0205,-0.027,-0.0426,-0.0427,-0.0797,-0.0801,-0.0804]}],[{"header":{"parameterUnit":"m.s-1","parameterCategory":2,"la1":30.2991,"la2":30.254,"lo1":-89.0895,"lo2":-89.0444,"dy":0.0017,"dx":0.0017,"nx":28,"ny":28,"refTime":"2024-11-25T09:00:00:Z","depth":"2","parameterNumber":2,"parameterNumberName":"U-component_of_CURRENTS"},"data":[0,0,0,0,0,0,0,0,0,0,0,0,0,0,0,0,0,0,0,0,0,0,0,0,0,0,0,0,0,0,0,0,0,0,0,0,0,0,0,0,0,0,0,0,0,0,0,0,0,0,0,0,0,0,0,0,0,0,-0.0745,-0.0745,0,-0.0711,-0.071,-0.071,-0.0689,-0.0689,-0.0689,-0.0689,-0.0649,-0.0648,-0.0647,0,0,0,0,0,0,0,0,0,0,0,0,0,-0.0802,-0.0801,-0.0745,-0.0745,-0.0745,-0.0711,-0.071,-0.071,-0.0689,-0.0689,-0.0689,-0.0689,-0.0649,-0.0648,-0.0647,0,0,0,0,0,0,0,0,0,0,0,0,0,-0.0773,-0.0801,-0.0745,-0.0731,-0.0729,-0.0711,-0.071,-0.071,-0.0689,-0.0689,-0.0689,-0.0689,-0.065,-0.0648,-0.0646,-0.0637,0,0,-0.0642,-0.0641,0,0,0,0,0,0,0,0,-0.0775,-0.0771,-0.0733,-0.0732,-0.073,-0.0705,-0.0716,-0.0685,-0.0689,-0.0704,-0.0689,-0.0689,-0.0668,-0.0665,-0.0657,-0.0635,-0.0633,-0.0641,-0.064,-0.064,-0.0639,0,0,0,0,0,0,0,-0.0777,-0.0772,-0.0731,-0.0733,-0.0731,-0.0729,-0.0725,-0.071,-0.0685,-0.0702,-0.0701,-0.0699,-0.0667,-0.0659,-0.0656,-0.0633,-0.0641,-0.064,-0.0639,-0.0638,-0.0563,-0.0562,0,0,0,0,0,0,-0.0782,-0.0774,-0.0732,-0.073,-0.0754,-0.0728,-0.0723,-0.0712,-0.0686,-0.0682,-0.0699,-0.0698,-0.0661,-0.0658,-0.0654,-0.0591,-0.064,-0.0638,-0.0637,-0.0564,-0.0562,-0.0561,0,0,0,0,0,0,-0.0783,-0.0778,-0.0733,-0.0752,-0.0747,-0.0727,-0.0715,-0.0712,-0.0689,-0.0683,-0.0679,-0.0678,-0.0661,-0.0657,-0.0633,-0.0592,-0.0638,-0.0636,-0.0565,-0.0563,-0.0562,-0.0497,0,0,0,0,0,0,-0.0785,-0.0779,-0.0774,-0.0752,-0.0746,-0.0715,-0.0715,-0.0711,-0.0689,-0.0687,-0.0664,-0.0661,-0.0661,-0.0636,-0.0632,-0.059,-0.0635,-0.0566,-0.0564,-0.0562,-0.0501,-0.0494,-0.0488,0,0,0,0,0,-0.0787,-0.0789,-0.0773,-0.0768,-0.0739,-0.0715,-0.0711,-0.0697,-0.0688,-0.0676,-0.0663,-0.0661,-0.062,-0.0634,-0.0629,-0.0586,-0.0567,-0.0565,-0.0562,-0.0504,-0.0495,-0.0488,0,0,0,0,0,0,-0.0814,-0.0786,-0.0769,-0.0762,-0.0733,-0.0712,-0.0705,-0.0687,-0.0665,-0.0659,-0.0652,-0.0648,-0.0611,-0.0613,-0.0628,-0.056,-0.0591,-0.0588,-0.0548,-0.054,-0.0533,-0.0495,-0.0634,0,0,0,0,0,-0.0816,-0.0805,-0.0773,-0.0763,-0.075,-0.0719,-0.0708,-0.0688,-0.0668,-0.0657,-0.0641,-0.0622,-0.0599,-0.0582,-0.057,-0.0533,-0.0504,-0.0503,-0.0496,-0.049,-0.0457,-0.0387,-0.037,-0.0553,-0.0553,-0.0554,0,0,-0.0823,-0.0806,-0.0799,-0.0767,-0.0745,-0.0706,-0.0712,-0.0683,-0.0638,-0.0657,-0.0601,-0.06,-0.0587,-0.0547,-0.0529,-0.0541,-0.0425,-0.0487,-0.0482,-0.0451,-0.0382,-0.0364,-0.0347,-0.0552,-0.0552,-0.0552,0,0,-0.0818,-0.0813,-0.0789,-0.0761,-0.072,-0.07,-0.0685,-0.0646,-0.0618,-0.0577,-0.057,-0.0534,-0.0518,-0.0478,-0.0462,-0.0409,-0.0398,-0.042,-0.0344,-0.0277,-0.0261,-0.0246,-0.0192,-0.0173,-0.041,-0.041,-0.041,0,-0.0825,-0.0783,-0.0779,-0.0739,-0.0708,-0.0689,-0.0638,-0.0608,-0.0563,-0.0526,-0.0554,-0.048,-0.0471,-0.0386,-0.0371,-0.0386,-0.0362,-0.0376,-0.0266,-0.025,-0.0236,-0.0185,-0.0164,-0.0407,-0.0407,-0.0408,-0.0408,0,-0.0782,-0.0748,-0.0734,-0.067,-0.0641,-0.0602,-0.0553,-0.0513,-0.0489,-0.0453,-0.038,-0.037,-0.0317,-0.0315,-0.0327,-0.0217,-0.0239,-0.027,-0.028,-0.0213,-0.0164,-0.0144,-0.0402,-0.0403,-0.0404,-0.0405,0,0,-0.0775,-0.0717,-0.0702,-0.0661,-0.0596,-0.0566,-0.049,-0.0411,-0.0349,-0.0315,-0.0232,-0.0186,-0.0179,-0.0158,-0.0159,-0.0101,0.0011,-0.0141,-0.0139,-0.0077,0.0152,0.0147,0.0168,-0.001,-0.0006,-0.0003,0.0143,0,-0.0727,-0.0661,-0.0629,-0.0543,-0.0502,-0.0455,-0.0388,-0.0316,-0.0271,-0.0196,-0.015,-0.0089,-0.0119,-0.0095,-0.0034,-0.0007,0.0069,-0.0025,0.007,0.0073,0.007,0.0194,0.0149,0.0276,0.0163,0.0166,0.0169,0,-0.067,-0.0633,-0.056,-0.0476,-0.0449,-0.0397,-0.0286,-0.022,-0.0115,-0.0077,0.0,0.0019,0.0128,0.0071,0.0207,0.014,0.0171,0.0187,0.0192,0.0188,0.0108,0.0191,0.0317,0.0202,0.02,0.0197,0.0195,0,-0.0665,-0.0573,-0.0521,-0.049,-0.0399,-0.0345,-0.0288,-0.0185,-0.0111,0.0005,0.0063,0.0164,0.0228,0.0286,0.033,0.0273,0.0461,0.0384,0.0421,0.0419,0.0406,0.0397,0.0511,0.0511,0.0511,0.051,0.051,0,-0.0631,-0.0579,-0.0518,-0.0487,-0.0398,-0.0338,-0.0231,-0.0159,-0.0045,0.0062,0.0123,0.0221,0.0285,0.0384,0.0396,0.0494,0.053,0.0487,0.0482,0.0424,0.0415,0.0359,0.034,0.0516,0.0514,0.0513,0.0512,0,-0.0633,-0.06,-0.0526,-0.0434,-0.04,-0.0337,-0.021,-0.0128,-0.0026,0.0117,0.0163,0.03,0.0438,0.0503,0.0613,0.0597,0.0668,0.0691,0.0616,0.06,0.0557,0.0539,0.0753,0.0755,0.0756,0.0758,0.0758,0,-0.0637,-0.0603,-0.0502,-0.0452,-0.0408,-0.0313,-0.0238,-0.0129,-0.004,0.0168,0.0241,0.0415,0.0529,0.0693,0.0722,0.0793,0.0772,0.0778,0.0673,0.0623,0.0595,0.0574,0.0555,0.0675,0.0676,0.0676,0.0676,0,-0.0622,-0.0585,-0.0529,-0.0435,-0.0357,-0.0259,-0.0152,-0.009,0.0065,0.018,0.036,0.0462,0.0638,0.0719,0.081,0.0808,0.0755,0.0782,0.0806,0.0606,0.0557,0.0526,0.0508,0.0677,0.0677,0.0677,0.0677,0.0677,-0.0604,-0.056,-0.0484,-0.0388,-0.0304,-0.02,-0.0132,-0.0023,0.0104,0.0293,0.0391,0.0557,0.0634,0.0758,0.0786,0.0802,0.0802,0.0759,0.0755,0.0753,0.0703,0.0658,0.0788,0.0788,0.0789,0.0789,0.0789,0,-0.0561,-0.0508,-0.0429,-0.0319,-0.023,-0.0181,-0.0058,0.0006,0.0131,0.0316,0.0456,0.054,0.0636,0.0734,0.0769,0.0762,0.0698,0.0737,0.0672,0.0672,0.0671,0.0613,0.0677,0.0677,0.0676,0.0676,0,0,-0.0532,-0.0452,-0.0406,-0.0264,-0.0187,-0.0077,-0.0012,0.0073,0.019,0.0346,0.0479,0.0595,0.0698,0.0688,0.0691,0.0717,0.067,0.0674,0.0763,0.0684,0.0683,0.0684,0.0596,0,0,0,0,0]},{"header":{"parameterUnit":"m.s-1","parameterCategory":2,"la1":30.2991,"la2":30.254,"lo1":-89.0895,"lo2":-89.0444,"dy":0.0017,"dx":0.0017,"nx":28,"ny":28,"refTime":"2024-11-25T09:00:00:Z","depth":"2","parameterNumber":3,"parameterNumberName":"V-component_of_CURRENTS"},"data":[0,0,0,0,0,0,0,0,0,0,0,0,0,0,0,0,0,0,0,0,0,0,0,0,0,0,0,0,0,0,0,0,0,0,0,0,0,0,0,0,0,0,0,0,0,0,0,0,0,0,0,0,0,0,0,0,0,0,-0.0395,-0.0395,0,-0.0431,-0.0431,-0.0431,-0.0492,-0.0494,-0.0495,-0.0496,-0.0555,-0.0555,-0.0555,0,0,0,0,0,0,0,0,0,0,0,0,0,-0.0344,-0.0345,-0.0395,-0.0396,-0.0396,-0.0431,-0.0431,-0.0432,-0.0492,-0.0494,-0.0495,-0.0497,-0.0555,-0.0555,-0.0555,0,0,0,0,0,0,0,0,0,0,0,0,0,-0.037,-0.0345,-0.0395,-0.0432,-0.0436,-0.0431,-0.0431,-0.0432,-0.0492,-0.0494,-0.0496,-0.0497,-0.0554,-0.0555,-0.0555,-0.0518,0,0,-0.0557,-0.0557,0,0,0,0,0,0,0,0,-0.0368,-0.0371,-0.0426,-0.043,-0.0434,-0.0461,-0.0435,-0.0462,-0.0491,-0.0468,-0.0496,-0.0498,-0.0525,-0.0528,-0.0527,-0.0521,-0.0523,-0.0557,-0.0557,-0.0557,-0.0557,0,0,0,0,0,0,0,-0.0367,-0.037,-0.0407,-0.0427,-0.0432,-0.0436,-0.0442,-0.044,-0.0484,-0.047,-0.0475,-0.0482,-0.0528,-0.0526,-0.0529,-0.0524,-0.0557,-0.0557,-0.0557,-0.0558,-0.052,-0.0519,0,0,0,0,0,0,-0.0366,-0.0368,-0.0406,-0.0408,-0.0408,-0.0435,-0.0442,-0.0449,-0.0483,-0.0491,-0.0481,-0.0485,-0.0525,-0.0528,-0.0531,-0.0503,-0.0557,-0.0558,-0.0558,-0.0522,-0.052,-0.0519,0,0,0,0,0,0,-0.0365,-0.0369,-0.0404,-0.0391,-0.0396,-0.0435,-0.0441,-0.0448,-0.0459,-0.0491,-0.05,-0.0486,-0.0526,-0.0531,-0.0535,-0.0506,-0.0558,-0.0558,-0.0523,-0.0521,-0.0519,-0.0437,0,0,0,0,0,0,-0.0363,-0.0368,-0.0369,-0.0391,-0.0397,-0.0386,-0.044,-0.0448,-0.0461,-0.0467,-0.0498,-0.0505,-0.0528,-0.0534,-0.0535,-0.0507,-0.0559,-0.0525,-0.0522,-0.052,-0.0442,-0.0433,-0.0425,0,0,0,0,0,-0.0361,-0.034,-0.0369,-0.0374,-0.0398,-0.0384,-0.0386,-0.0419,-0.0459,-0.0441,-0.0479,-0.0505,-0.052,-0.0533,-0.0535,-0.0506,-0.0526,-0.0523,-0.052,-0.0445,-0.0435,-0.0426,0,0,0,0,0,0,-0.031,-0.0345,-0.0377,-0.0368,-0.0375,-0.0395,-0.0383,-0.0415,-0.0429,-0.0444,-0.0488,-0.0495,-0.0486,-0.0506,-0.052,-0.0489,-0.0527,-0.0524,-0.0469,-0.0459,-0.0451,-0.0454,-0.0559,0,0,0,0,0,-0.0302,-0.0305,-0.0332,-0.0324,-0.0325,-0.0358,-0.036,-0.0383,-0.0402,-0.0411,-0.0441,-0.0466,-0.047,-0.0476,-0.0481,-0.0462,-0.0494,-0.0445,-0.0437,-0.043,-0.0434,-0.0462,-0.0457,-0.0509,-0.0509,-0.0509,0,0,-0.0281,-0.0302,-0.0304,-0.0315,-0.0325,-0.0313,-0.0362,-0.0354,-0.0354,-0.0413,-0.0417,-0.0436,-0.0459,-0.044,-0.0437,-0.0457,-0.0427,-0.0427,-0.042,-0.0428,-0.0459,-0.0454,-0.045,-0.0507,-0.0508,-0.0508,0,0,-0.023,-0.0255,-0.024,-0.0241,-0.0256,-0.0273,-0.0271,-0.0293,-0.0309,-0.0309,-0.0354,-0.0359,-0.037,-0.0379,-0.0386,-0.0334,-0.0382,-0.0334,-0.0296,-0.0322,-0.0319,-0.0316,-0.0329,-0.0328,-0.0331,-0.0331,-0.0331,0,-0.0205,-0.0208,-0.0226,-0.0209,-0.0218,-0.0254,-0.024,-0.0241,-0.0267,-0.0281,-0.0301,-0.0327,-0.0339,-0.0329,-0.0309,-0.0314,-0.0342,-0.033,-0.0312,-0.0311,-0.0309,-0.0324,-0.0324,-0.0327,-0.0327,-0.0328,-0.0328,0,-0.0149,-0.0154,-0.0135,-0.0145,-0.014,-0.013,-0.0146,-0.0148,-0.0182,-0.0202,-0.0208,-0.0225,-0.0251,-0.0239,-0.0256,-0.0245,-0.027,-0.0298,-0.0339,-0.0299,-0.0317,-0.0318,-0.0321,-0.0322,-0.0324,-0.0325,0,0,-0.0111,-0.0103,-0.0103,-0.0114,-0.0119,-0.0113,-0.0097,-0.0107,-0.0117,-0.0126,-0.0143,-0.013,-0.0163,-0.0172,-0.0193,-0.0203,-0.0196,-0.0242,-0.0245,-0.0257,-0.0253,-0.0248,-0.025,-0.0231,-0.0232,-0.0232,-0.0262,0,-0.008,-0.0053,-0.0054,-0.004,-0.0042,-0.0061,-0.0047,-0.0055,-0.0074,-0.0086,-0.0103,-0.0118,-0.013,-0.0146,-0.0153,-0.0194,-0.0201,-0.0186,-0.0289,-0.0291,-0.0294,-0.0252,-0.0288,-0.0316,-0.0264,-0.0264,-0.0264,0,-0.0057,-0.0049,-0.003,-0.0036,-0.0034,-0.002,-0.0039,-0.0028,-0.0036,-0.0052,-0.0067,-0.0093,-0.0099,-0.0123,-0.0166,-0.0162,-0.0198,-0.0225,-0.0228,-0.0258,-0.029,-0.0352,-0.0322,-0.0268,-0.0268,-0.0267,-0.0267,0,-0.0077,-0.0049,-0.0047,-0.0045,-0.0032,-0.0028,-0.0025,-0.0027,-0.0017,-0.0041,-0.0039,-0.0071,-0.0081,-0.0134,-0.017,-0.0183,-0.0221,-0.0253,-0.0279,-0.0279,-0.0347,-0.0352,-0.0287,-0.0287,-0.0287,-0.0287,-0.0286,0,-0.0085,-0.0084,-0.0055,-0.0054,-0.0041,-0.0036,-0.0025,-0.0025,-0.0014,0.0019,-0.0027,-0.0008,-0.0087,-0.011,-0.0165,-0.0213,-0.022,-0.0264,-0.0286,-0.0315,-0.0317,-0.0314,-0.0317,-0.0288,-0.0287,-0.0287,-0.0287,0,-0.012,-0.0103,-0.0092,-0.0064,-0.0053,-0.0047,-0.0007,0.0013,0.0011,0.0053,0.005,0.0035,0.0003,-0.0063,-0.0141,-0.0194,-0.0255,-0.0272,-0.0288,-0.031,-0.03,-0.0298,-0.032,-0.032,-0.032,-0.032,-0.032,0,-0.0136,-0.0137,-0.0095,-0.0068,-0.0052,-0.0032,-0.0001,0.0016,0.0054,0.0099,0.0134,0.0109,0.0108,-0.0005,-0.0129,-0.0238,-0.0227,-0.0325,-0.0352,-0.0284,-0.0303,-0.0301,-0.0299,-0.0406,-0.0407,-0.0408,-0.0408,0,-0.016,-0.0144,-0.0124,-0.0063,-0.0024,0.0026,0.0075,0.0112,0.0159,0.0192,0.0263,0.0257,0.0144,0.0006,-0.0157,-0.0231,-0.0316,-0.0339,-0.0279,-0.0382,-0.0366,-0.0384,-0.038,-0.0413,-0.0413,-0.0412,-0.0412,-0.0412,-0.0172,-0.0154,-0.0108,-0.0049,0.0014,0.0103,0.0155,0.0216,0.0284,0.0341,0.0338,0.0322,0.0128,-0.0098,-0.0221,-0.0336,-0.0338,-0.0399,-0.0398,-0.0396,-0.039,-0.0374,-0.0421,-0.0421,-0.042,-0.042,-0.042,0,-0.0184,-0.0141,-0.0084,0.0001,0.0088,0.013,0.0233,0.0277,0.0373,0.0386,0.0406,0.0223,0.0048,-0.0096,-0.0296,-0.0433,-0.0451,-0.0445,-0.046,-0.0455,-0.0451,-0.0448,-0.0495,-0.0495,-0.0495,-0.0494,0,0,-0.0187,-0.014,-0.0097,0.0053,0.0141,0.0276,0.0352,0.0396,0.0423,0.0407,0.0384,0.026,0.0076,-0.0094,-0.0291,-0.0369,-0.0366,-0.0382,-0.0321,-0.0315,-0.0308,-0.0439,-0.043,0,0,0,0,0]}],[{"header":{"parameterUnit":"m.s-1","parameterCategory":2,"la1":30.2991,"la2":30.254,"lo1":-89.0895,"lo2":-89.0444,"dy":0.0017,"dx":0.0017,"nx":28,"ny":28,"refTime":"2024-11-25T09:00:00:Z","depth":"4","parameterNumber":2,"parameterNumberName":"U-component_of_CURRENTS"},"data":[0,0,0,0,0,0,0,0,0,0,0,0,0,0,0,0,0,0,0,0,0,0,0,0,0,0,0,0,0,0,0,0,0,0,0,0,0,0,0,0,0,0,0,0,0,0,0,0,0,0,0,0,0,0,0,0,0,0,0.0121,0.0121,0,0.0138,0.0138,0.0138,0.0152,0.0152,0.0153,0.0153,0.0147,0.0146,0.0146,0,0,0,0,0,0,0,0,0,0,0,0,0,0.0067,0.0068,0.0121,0.0121,0.0121,0.0138,0.0138,0.0138,0.0152,0.0152,0.0153,0.0153,0.0147,0.0146,0.0146,0,0,0,0,0,0,0,0,0,0,0,0,0,0.0087,0.0068,0.012,0.0131,0.0132,0.0138,0.0138,0.0138,0.0152,0.0152,0.0153,0.0153,0.0147,0.0146,0.0146,0.0136,0,0,0.0144,0.0144,0,0,0,0,0,0,0,0,0.0086,0.0089,0.0129,0.013,0.0131,0.0144,0.0117,0.0137,0.0152,0.0144,0.0153,0.0153,0.0144,0.0143,0.0145,0.0136,0.0136,0.0144,0.0144,0.0143,0.0143,0,0,0,0,0,0,0,0.0085,0.0088,0.0127,0.0129,0.0131,0.0123,0.0127,0.0121,0.0141,0.0144,0.0146,0.0149,0.0144,0.0146,0.0145,0.0136,0.0144,0.0144,0.0143,0.0143,0.0117,0.0117,0,0,0,0,0,0,0.0086,0.0087,0.0126,0.0127,0.011,0.0124,0.0128,0.0139,0.0141,0.0142,0.0148,0.0149,0.0147,0.0146,0.0145,0.0132,0.0143,0.0143,0.0143,0.0118,0.0117,0.0117,0,0,0,0,0,0,0.0085,0.0089,0.0125,0.0108,0.0112,0.0125,0.0137,0.0139,0.0144,0.0145,0.0145,0.0151,0.0147,0.0146,0.0144,0.0132,0.0143,0.0142,0.0118,0.0117,0.0117,0.0108,0,0,0,0,0,0,0.0083,0.0089,0.0091,0.0108,0.0113,0.0129,0.0137,0.0139,0.0145,0.0147,0.0147,0.0147,0.0147,0.0145,0.0143,0.0132,0.0142,0.0118,0.0118,0.0117,0.0109,0.0107,0.0106,0,0,0,0,0,0.0081,0.0086,0.0091,0.0096,0.0118,0.0128,0.013,0.014,0.0145,0.0145,0.0149,0.0147,0.0139,0.0144,0.0143,0.013,0.0119,0.0118,0.0117,0.0109,0.0107,0.0106,0,0,0,0,0,0,0.0064,0.0089,0.0095,0.0107,0.0116,0.0131,0.013,0.0139,0.0143,0.0142,0.0146,0.0146,0.0136,0.0137,0.0142,0.0121,0.0127,0.0126,0.0121,0.0119,0.0118,0.013,0.0141,0,0,0,0,0,0.0061,0.0072,0.0091,0.0098,0.0103,0.0116,0.012,0.0128,0.0135,0.0138,0.0141,0.0139,0.0131,0.0129,0.0122,0.0115,0.0127,0.0105,0.0103,0.0102,0.0111,0.0111,0.011,0.0114,0.0114,0.0114,0,0,0.0054,0.007,0.0075,0.0095,0.0102,0.0107,0.0119,0.0125,0.013,0.0135,0.0138,0.0132,0.0127,0.0117,0.0112,0.0117,0.0109,0.0101,0.01,0.0109,0.011,0.0109,0.0109,0.0114,0.0114,0.0114,0,0,0.0051,0.0062,0.0071,0.0078,0.0091,0.0097,0.0099,0.0115,0.0121,0.0121,0.0124,0.0119,0.0109,0.0108,0.0104,0.0092,0.0099,0.0081,0.0086,0.0086,0.0086,0.0086,0.0113,0.0115,0.0083,0.0083,0.0083,0,0.004,0.006,0.0072,0.0083,0.0086,0.0093,0.0098,0.0104,0.0117,0.0122,0.0119,0.0113,0.0105,0.0102,0.0095,0.0089,0.0099,0.0093,0.0085,0.0085,0.0085,0.0113,0.0115,0.0083,0.0083,0.0083,0.0083,0,0.0047,0.0059,0.0062,0.0078,0.008,0.0083,0.0094,0.0097,0.0099,0.0107,0.0107,0.0102,0.0101,0.009,0.0087,0.0083,0.0094,0.0081,0.0091,0.0084,0.0114,0.0117,0.0082,0.0082,0.0082,0.0082,0,0,0.0036,0.0062,0.0064,0.007,0.0078,0.0082,0.0084,0.0093,0.0098,0.0102,0.0112,0.0096,0.0099,0.0096,0.0092,0.0092,0.0099,0.0086,0.0087,0.0118,0.0118,0.0152,0.0159,0.008,0.008,0.008,0.0143,0,0.0036,0.0054,0.0067,0.0071,0.0077,0.0082,0.0084,0.0091,0.0093,0.0103,0.0106,0.0106,0.01,0.0096,0.0095,0.0097,0.0105,0.0085,0.0117,0.0119,0.0152,0.0162,0.0081,0.0146,0.0146,0.0147,0.0147,0,0.0044,0.0053,0.0061,0.0074,0.0077,0.0078,0.0081,0.0086,0.0098,0.0102,0.0108,0.0112,0.0123,0.0108,0.0128,0.0114,0.0117,0.0121,0.0123,0.0161,0.0158,0.015,0.0153,0.0153,0.0152,0.0152,0.0152,0,0.0032,0.0052,0.0056,0.0059,0.007,0.0074,0.0077,0.0085,0.0093,0.0104,0.0114,0.0124,0.0139,0.0138,0.0155,0.0135,0.0182,0.0154,0.0195,0.0199,0.0153,0.0153,0.0164,0.0164,0.0164,0.0164,0.0164,0,0.003,0.0035,0.0053,0.0051,0.0057,0.0067,0.0071,0.0079,0.0093,0.011,0.0116,0.014,0.0143,0.0172,0.017,0.0212,0.0198,0.021,0.0216,0.015,0.0148,0.0157,0.0155,0.0166,0.0166,0.0165,0.0165,0,0.0018,0.003,0.0034,0.0045,0.0052,0.0053,0.0071,0.0078,0.0093,0.0117,0.0125,0.016,0.0204,0.0224,0.0241,0.0247,0.0267,0.0281,0.0243,0.0243,0.0281,0.0278,0.0332,0.0334,0.0335,0.0337,0.0338,0,0.0015,0.0014,0.0025,0.0032,0.0038,0.0047,0.0056,0.0072,0.0084,0.0136,0.0154,0.0209,0.0234,0.0306,0.031,0.034,0.0328,0.0346,0.0283,0.0298,0.0298,0.0293,0.0288,0.034,0.034,0.0341,0.0341,0,-0.0003,-0.0002,0.0001,0.0018,0.003,0.0046,0.0065,0.0078,0.0108,0.0122,0.0191,0.0234,0.0297,0.0328,0.0366,0.0372,0.0335,0.036,0.0356,0.0297,0.0308,0.0305,0.0299,0.0346,0.0345,0.0345,0.0344,0,-0.0019,-0.0019,-0.001,0.001,0.0028,0.0058,0.0063,0.01,0.012,0.0176,0.0202,0.0266,0.0299,0.0348,0.0376,0.04,0.0384,0.0366,0.0361,0.0356,0.0334,0.035,0.0418,0,0,0,0,0,-0.0031,-0.0023,-0.0011,0.0019,0.0041,0.006,0.0081,0.0088,0.0119,0.0168,0.0186,0.0245,0.0315,0.0346,0.0375,0.0383,0.0379,0.0417,0.0352,0.0373,0.0368,0.034,0,0,0,0,0,0,-0.0038,-0.0032,-0.0015,0.0029,0.0059,0.0088,0.0105,0.0124,0.0151,0.0182,0.0218,0.0247,0.0308,0.0301,0.0377,0.0386,0.0347,0.045,0.0451,0.0376,0.0371,0.0367,0.0336,0,0,0,0,0]},{"header":{"parameterUnit":"m.s-1","parameterCategory":2,"la1":30.2991,"la2":30.254,"lo1":-89.0895,"lo2":-89.0444,"dy":0.0017,"dx":0.0017,"nx":28,"ny":28,"refTime":"2024-11-25T09:00:00:Z","depth":"4","parameterNumber":3,"parameterNumberName":"V-component_of_CURRENTS"},"data":[0,0,0,0,0,0,0,0,0,0,0,0,0,0,0,0,0,0,0,0,0,0,0,0,0,0,0,0,0,0,0,0,0,0,0,0,0,0,0,0,0,0,0,0,0,0,0,0,0,0,0,0,0,0,0,0,0,0,-0.0245,-0.0245,0,-0.0273,-0.0273,-0.0274,-0.032,-0.0321,-0.0322,-0.0322,-0.0384,-0.0385,-0.0386,0,0,0,0,0,0,0,0,0,0,0,0,0,-0.0198,-0.0199,-0.0244,-0.0245,-0.0245,-0.0273,-0.0273,-0.0274,-0.032,-0.0321,-0.0322,-0.0323,-0.0384,-0.0385,-0.0386,0,0,0,0,0,0,0,0,0,0,0,0,0,-0.0222,-0.0199,-0.0244,-0.0271,-0.0274,-0.0273,-0.0273,-0.0274,-0.032,-0.0321,-0.0322,-0.0323,-0.0384,-0.0385,-0.0386,-0.0371,0,0,-0.039,-0.0391,0,0,0,0,0,0,0,0,-0.0221,-0.0224,-0.0267,-0.0269,-0.0272,-0.0294,-0.028,-0.0308,-0.0319,-0.0303,-0.0322,-0.0324,-0.0356,-0.0359,-0.0363,-0.0374,-0.0376,-0.0391,-0.0391,-0.0392,-0.0392,0,0,0,0,0,0,0,-0.0219,-0.0223,-0.0256,-0.0267,-0.027,-0.027,-0.0275,-0.0285,-0.0323,-0.0304,-0.0308,-0.0309,-0.0358,-0.0361,-0.0364,-0.0377,-0.0391,-0.0392,-0.0393,-0.0393,-0.0466,-0.0467,0,0,0,0,0,0,-0.0215,-0.0221,-0.0255,-0.0257,-0.0248,-0.027,-0.0276,-0.0286,-0.0323,-0.0329,-0.0308,-0.0311,-0.0358,-0.0363,-0.0367,-0.0438,-0.0392,-0.0393,-0.0394,-0.0465,-0.0467,-0.0468,0,0,0,0,0,0,-0.0214,-0.0218,-0.0254,-0.0239,-0.0243,-0.027,-0.0281,-0.0286,-0.0309,-0.0325,-0.0333,-0.0328,-0.0359,-0.0365,-0.0404,-0.0437,-0.0394,-0.0395,-0.0464,-0.0466,-0.0467,-0.0523,0,0,0,0,0,0,-0.0212,-0.0217,-0.0232,-0.0239,-0.0244,-0.0278,-0.028,-0.0286,-0.0306,-0.0311,-0.0344,-0.035,-0.0361,-0.0402,-0.0405,-0.0438,-0.0396,-0.0462,-0.0465,-0.0467,-0.052,-0.0527,-0.0532,0,0,0,0,0,-0.0211,-0.023,-0.0233,-0.0237,-0.0261,-0.0279,-0.0283,-0.0304,-0.0306,-0.0327,-0.035,-0.035,-0.0418,-0.0404,-0.0408,-0.0442,-0.0461,-0.0464,-0.0466,-0.0517,-0.0525,-0.0532,0,0,0,0,0,0,-0.0224,-0.0236,-0.024,-0.0264,-0.0279,-0.0287,-0.0306,-0.031,-0.0341,-0.0351,-0.0362,-0.037,-0.0424,-0.0416,-0.0401,-0.0468,-0.044,-0.0443,-0.0477,-0.0485,-0.0491,-0.0463,-0.0397,0,0,0,0,0,-0.0228,-0.0248,-0.0256,-0.0279,-0.0284,-0.0293,-0.0304,-0.0318,-0.0338,-0.0353,-0.0376,-0.04,-0.0431,-0.0446,-0.0473,-0.0498,-0.0473,-0.0523,-0.0529,-0.0534,-0.0513,-0.051,-0.0513,-0.0476,-0.0476,-0.0476,0,0,-0.0241,-0.025,-0.0263,-0.0283,-0.0293,-0.0306,-0.0305,-0.033,-0.0349,-0.0354,-0.0399,-0.0429,-0.0445,-0.0492,-0.0513,-0.0492,-0.0535,-0.0537,-0.0542,-0.0518,-0.0513,-0.0516,-0.0519,-0.0478,-0.0477,-0.0477,0,0,-0.0264,-0.0281,-0.0298,-0.0307,-0.0324,-0.0332,-0.034,-0.036,-0.0382,-0.0426,-0.0437,-0.0472,-0.0526,-0.0533,-0.0545,-0.0591,-0.0576,-0.0618,-0.0618,-0.0616,-0.0619,-0.062,-0.0604,-0.0604,-0.0611,-0.0611,-0.0611,0,-0.028,-0.0292,-0.0307,-0.0317,-0.0324,-0.0342,-0.0353,-0.0377,-0.0412,-0.0423,-0.0456,-0.0516,-0.054,-0.056,-0.0592,-0.0603,-0.0599,-0.0592,-0.0623,-0.0624,-0.0625,-0.0608,-0.0607,-0.0614,-0.0614,-0.0613,-0.0613,0,-0.0301,-0.0313,-0.0323,-0.0341,-0.0357,-0.0372,-0.0394,-0.0421,-0.0456,-0.0475,-0.0527,-0.0561,-0.0585,-0.0615,-0.0627,-0.0644,-0.0639,-0.064,-0.0601,-0.0632,-0.0612,-0.061,-0.0618,-0.0617,-0.0616,-0.0616,0,0,-0.0327,-0.0335,-0.034,-0.0336,-0.0365,-0.0374,-0.041,-0.0434,-0.0446,-0.051,-0.0525,-0.0596,-0.0607,-0.0618,-0.0633,-0.0637,-0.0658,-0.0649,-0.0648,-0.0627,-0.0653,-0.0638,-0.0633,-0.0678,-0.0678,-0.0678,-0.064,0,-0.0336,-0.0343,-0.0353,-0.0366,-0.0364,-0.0386,-0.0411,-0.0439,-0.0482,-0.0509,-0.0542,-0.0579,-0.0609,-0.063,-0.0642,-0.0657,-0.0654,-0.0667,-0.0629,-0.0627,-0.0606,-0.0631,-0.0677,-0.0639,-0.0638,-0.0638,-0.0637,0,-0.0341,-0.0342,-0.0348,-0.0349,-0.0352,-0.037,-0.0394,-0.042,-0.0458,-0.0494,-0.0527,-0.0558,-0.0577,-0.0605,-0.0619,-0.0635,-0.0643,-0.0651,-0.065,-0.0606,-0.0608,-0.0599,-0.0633,-0.0633,-0.0634,-0.0634,-0.0634,0,-0.0324,-0.0333,-0.0333,-0.0336,-0.0351,-0.036,-0.0377,-0.0413,-0.0429,-0.0474,-0.0494,-0.0528,-0.0544,-0.0567,-0.06,-0.0617,-0.061,-0.0625,-0.0606,-0.0604,-0.0603,-0.0601,-0.0617,-0.0618,-0.0618,-0.0618,-0.0618,0,-0.0312,-0.0312,-0.0322,-0.032,-0.0323,-0.0341,-0.0355,-0.038,-0.0409,-0.0418,-0.0475,-0.048,-0.0542,-0.0555,-0.0583,-0.0586,-0.0591,-0.0596,-0.0594,-0.063,-0.0631,-0.0601,-0.06,-0.0616,-0.0617,-0.0617,-0.0617,0,-0.0293,-0.0299,-0.0293,-0.0305,-0.0311,-0.0314,-0.0336,-0.0346,-0.0376,-0.0387,-0.0399,-0.0443,-0.0463,-0.0506,-0.0533,-0.0552,-0.0561,-0.0556,-0.0578,-0.0578,-0.0558,-0.0561,-0.0526,-0.0526,-0.0525,-0.0524,-0.0524,0,-0.0282,-0.0277,-0.0283,-0.0281,-0.0289,-0.0297,-0.0305,-0.0333,-0.0342,-0.0354,-0.0352,-0.0375,-0.0406,-0.0414,-0.0474,-0.0509,-0.0518,-0.052,-0.0554,-0.0548,-0.0549,-0.0552,-0.0555,-0.0523,-0.0522,-0.0522,-0.0522,0,-0.0261,-0.0267,-0.0266,-0.0262,-0.0267,-0.0272,-0.0281,-0.0278,-0.0301,-0.0317,-0.0298,-0.0321,-0.0335,-0.0382,-0.0415,-0.0443,-0.0525,-0.0513,-0.0515,-0.0547,-0.0543,-0.0546,-0.0549,-0.052,-0.052,-0.052,-0.052,0,-0.025,-0.0246,-0.0245,-0.0242,-0.0248,-0.0251,-0.0256,-0.0252,-0.0256,-0.0263,-0.0246,-0.0275,-0.0298,-0.0345,-0.0371,-0.0407,-0.042,-0.0436,-0.0442,-0.0446,-0.0448,-0.0433,-0.0364,0,0,0,0,0,-0.0236,-0.023,-0.0225,-0.0222,-0.023,-0.0235,-0.0244,-0.025,-0.0253,-0.0228,-0.0236,-0.0245,-0.0284,-0.0305,-0.0334,-0.0377,-0.0444,-0.0413,-0.047,-0.0506,-0.0509,-0.0526,0,0,0,0,0,0,-0.0225,-0.022,-0.0217,-0.0211,-0.0209,-0.0218,-0.0225,-0.0227,-0.0214,-0.0214,-0.023,-0.0242,-0.0284,-0.0256,-0.0326,-0.0341,-0.0379,-0.0437,-0.0437,-0.0504,-0.0507,-0.0509,-0.0528,0,0,0,0,0]}]]